Zurück zum Katalog

SL-14 DEB

AktivPO
NORAD 45281·DEBRIS·🇷🇺 Russia

Gestartet Aug 15, 1991 von Plesetsk Cosmodrome

Loading…

Nächste Überflüge (nächste 24 Stunden)

TLE

AktuellSource: Space-Track

Epoche: Sep 14, 2026, 13:13 UTC

1 45281U 91056T   26257.55095814  .00003761  00000-0  32069-2 0  9999
2 45281  82.5638 300.8757 0146842  66.7805 294.8741 13.82106339327228

Verfolge SL-14 DEB in Echtzeit mit AllMySat

Download on the App Store